| time (UTC) | temp F | wind direction | speed MPH | gust MPH | rain 1hr in | rain 24hr in | rain mn in | humidity % | barometer mb |
| 20260504045804 | 47 | 232 | 2.0 | 6.0 | 0.00 | 0.00 | 0.00 | 61 | 1013.1 |
| 20260504045304 | 47 | 240 | 1.0 | 6.0 | 0.00 | 0.00 | 0.00 | 61 | 1013.1 |
| 20260504044805 | 47 | 228 | 1.0 | 5.0 | 0.00 | 0.00 | 0.00 | 61 | 1013.1 |
| 20260504044304 | 47 | 209 | 1.0 | 3.0 | 0.00 | 0.00 | 0.00 | 60 | 1013.0 |
| 20260504043805 | 48 | 211 | 2.0 | 7.0 | 0.00 | 0.00 | 0.00 | 60 | 1013.1 |
| 20260504043304 | 48 | 214 | 2.0 | 10.0 | 0.00 | 0.00 | 0.00 | 60 | 1013.0 |
| 20260504042805 | 48 | 200 | 2.0 | 6.0 | 0.00 | 0.00 | 0.00 | 60 | 1013.0 |
| 20260504042305 | 48 | 239 | 2.0 | 11.0 | 0.00 | 0.00 | 0.00 | 60 | 1013.0 |
| 20260504041804 | 48 | 256 | 2.0 | 6.0 | 0.00 | 0.00 | 0.00 | 59 | 1013.0 |
| 20260504041304 | 48 | 239 | 2.0 | 7.0 | 0.00 | 0.00 | 0.00 | 59 | 1013.0 |
| 20260504040804 | 48 | 247 | 2.0 | 7.0 | 0.00 | 0.00 | 0.00 | 59 | 1013.0 |
| 20260504040304 | 48 | 245 | 2.0 | 7.0 | 0.00 | 0.00 | 0.00 | 60 | 1012.9 |
| 20260504035847 | 48 | 237 | 2.0 | 5.0 | 0.00 | 0.00 | 0.00 | 59 | 1012.9 |
| 20260504035305 | 48 | 254 | 2.0 | 7.0 | 0.00 | 0.00 | 0.00 | 60 | 1012.9 |
| 20260504034805 | 48 | 220 | 2.0 | 8.0 | 0.00 | 0.00 | 0.00 | 60 | 1012.8 |
| 20260504034305 | 48 | 224 | 2.0 | 8.0 | 0.00 | 0.00 | 0.00 | 60 | 1012.8 |
| 20260504033804 | 48 | 235 | 2.0 | 6.0 | 0.00 | 0.11 | 0.00 | 59 | 1012.7 |
| 20260504033305 | 48 | 245 | 1.0 | 4.0 | 0.00 | 0.00 | 0.00 | 59 | 1012.7 |
| 20260504032804 | 48 | 217 | 1.0 | 4.0 | 0.00 | 0.00 | 0.00 | 58 | 1012.7 |
| 20260504032304 | 48 | 215 | 1.0 | 3.0 | 0.00 | 0.00 | 0.00 | 58 | 1012.7 |
| 20260504031804 | 48 | 232 | 1.0 | 4.0 | 0.00 | 0.00 | 0.00 | 61 | 1012.7 |
| 20260504031304 | 48 | 245 | 1.0 | 4.0 | 0.00 | 0.00 | 0.00 | 58 | 1012.7 |
| 20260504030805 | 48 | 239 | 2.0 | 4.0 | 0.00 | 0.00 | 0.00 | 58 | 1012.7 |
| 20260504025805 | 49 | 242 | 2.0 | 5.0 | 0.00 | 0.00 | 0.00 | 58 | 1012.6 |
| 20260504025305 | 49 | 272 | 2.0 | 9.0 | 0.00 | 0.00 | 0.00 | 58 | 1012.6 |
| 20260504024846 | 49 | 247 | 1.0 | 6.0 | 0.00 | 0.00 | 0.00 | 57 | 1012.7 |
| 20260504024305 | 49 | 269 | 1.0 | 3.0 | 0.00 | 0.00 | 0.00 | 58 | 1012.7 |
| 20260504023806 | 49 | 241 | 2.0 | 6.0 | 0.00 | 0.00 | 0.00 | 58 | 1012.7 |
| 20260504023304 | 49 | 228 | 1.0 | 4.0 | 0.00 | 0.00 | 0.00 | 57 | 1012.7 |
| 20260504022805 | 49 | 238 | 1.0 | 6.0 | 0.00 | 0.00 | 0.00 | 57 | 1012.7 |
| 20260504022305 | 49 | 229 | 1.0 | 4.0 | 0.00 | 0.00 | 0.00 | 57 | 1012.7 |
| 20260504021805 | 49 | 220 | 1.0 | 4.0 | 0.00 | 0.00 | 0.00 | 56 | 1012.7 |
| 20260504021304 | 49 | 237 | 0.0 | 3.0 | 0.00 | 0.00 | 0.00 | 56 | 1012.7 |
| 20260504020805 | 50 | 238 | 1.0 | 3.0 | 0.00 | 0.00 | 0.00 | 56 | 1012.7 |
| 20260504020305 | 50 | 238 | 1.0 | 2.0 | 0.00 | 0.00 | 0.00 | 56 | 1012.8 |
| 20260504015804 | 50 | 240 | 1.0 | 3.0 | 0.00 | 0.00 | 0.00 | 55 | 1012.8 |
| 20260504015304 | 50 | 242 | 2.0 | 4.0 | 0.00 | 0.00 | 0.00 | 55 | 1012.7 |
| 20260504014805 | 50 | 238 | 2.0 | 5.0 | 0.00 | 0.00 | 0.00 | 56 | 1012.7 |
| 20260504014304 | 50 | 201 | 2.0 | 11.0 | 0.00 | 0.00 | 0.00 | 56 | 1012.6 |
| 20260504013804 | 50 | 232 | 2.0 | 14.0 | 0.00 | 0.00 | 0.00 | 56 | 1012.6 |
| 20260504013305 | 50 | 229 | 2.0 | 6.0 | 0.00 | 0.00 | 0.00 | 56 | 1012.6 |
| 20260504012847 | 50 | 245 | 2.0 | 6.0 | 0.00 | 0.00 | 0.00 | 55 | 1012.5 |
| 20260504012305 | 50 | 248 | 2.0 | 6.0 | 0.00 | 0.00 | 0.00 | 55 | 1012.5 |
| 20260504011805 | 50 | 248 | 3.0 | 7.0 | 0.00 | 0.00 | 0.00 | 55 | 1012.5 |
| 20260504011305 | 50 | 268 | 2.0 | 6.0 | 0.00 | 0.00 | 0.00 | 56 | 1012.4 |
| 20260504010805 | 50 | 230 | 2.0 | 7.0 | 0.00 | 0.00 | 0.00 | 55 | 1012.4 |
| 20260504010305 | 50 | 258 | 2.0 | 7.0 | 0.00 | 0.00 | 0.00 | 56 | 1012.4 |
| 20260504005805 | 51 | 240 | 2.0 | 9.0 | 0.00 | 0.00 | 0.00 | 55 | 1012.4 |
| 20260504005305 | 51 | 254 | 2.0 | 6.0 | 0.00 | 0.00 | 0.00 | 54 | 1012.3 |
| 20260504004805 | 51 | 260 | 2.0 | 9.0 | 0.00 | 0.00 | 0.00 | 54 | 1012.3 |
| 20260504003805 | 51 | 248 | 2.0 | 10.0 | 0.00 | 0.00 | 0.00 | 53 | 1012.2 |
| 20260504003304 | 52 | 233 | 1.0 | 6.0 | 0.00 | 0.00 | 0.00 | 53 | 1012.1 |
| 20260504002804 | 52 | 257 | 1.0 | 7.0 | 0.00 | 0.00 | 0.00 | 52 | 1012.0 |
| 20260504002305 | 52 | 249 | 2.0 | 4.0 | 0.00 | 0.00 | 0.00 | 51 | 1012.0 |
| 20260504001805 | 52 | 255 | 2.0 | 5.0 | 0.00 | 0.00 | 0.00 | 50 | 1012.0 |
| 20260504001304 | 53 | 289 | 2.0 | 7.0 | 0.00 | 0.00 | 0.00 | 50 | 1011.9 |
| 20260504000805 | 53 | 268 | 2.0 | 7.0 | 0.00 | 0.00 | 0.00 | 49 | 1011.9 |
| 20260504000347 | 53 | 253 | 3.0 | 6.0 | 0.00 | 0.00 | 0.00 | 50 | 1011.9 |
| 20260503235847 | 54 | 300 | 2.0 | 8.0 | 0.00 | 0.00 | 0.00 | 50 | 1011.8 |
| 20260503235347 | 54 | 262 | 2.0 | 6.0 | 0.00 | 0.00 | 0.00 | 49 | 1011.8 |
| 20260503234805 | 54 | 282 | 2.0 | 6.0 | 0.00 | 0.00 | 0.00 | 48 | 1011.8 |
| 20260503234305 | 55 | 261 | 3.0 | 7.0 | 0.00 | 0.00 | 0.00 | 48 | 1011.8 |
| 20260503233805 | 55 | 281 | 2.0 | 7.0 | 0.00 | 0.00 | 0.00 | 47 | 1011.6 |
| 20260503233305 | 55 | 302 | 2.0 | 7.0 | 0.00 | 0.00 | 0.00 | 46 | 1011.7 |
| 20260503232805 | 56 | 268 | 3.0 | 10.0 | 0.00 | 0.00 | 0.00 | 46 | 1011.6 |
| 20260503232305 | 56 | 262 | 3.0 | 13.0 | 0.00 | 0.00 | 0.00 | 45 | 1011.6 |
| 20260503231847 | 56 | 270 | 4.0 | 10.0 | 0.00 | 0.00 | 0.00 | 44 | 1011.6 |
| 20260503231305 | 57 | 267 | 4.0 | 14.0 | 0.00 | 0.00 | 0.00 | 44 | 1011.5 |
| 20260503230805 | 57 | 279 | 4.0 | 15.0 | 0.00 | 0.00 | 0.00 | 44 | 1011.5 |
| 20260503230304 | 57 | 307 | 4.0 | 15.0 | 0.00 | 0.00 | 0.00 | 44 | 1011.5 |
| 20260503225805 | 57 | 297 | 4.0 | 13.0 | 0.00 | 0.00 | 0.00 | 44 | 1011.4 |
| 20260503225305 | 57 | 284 | 4.0 | 12.0 | 0.00 | 0.00 | 0.00 | 44 | 1011.4 |
| 20260503224805 | 57 | 279 | 3.0 | 9.0 | 0.00 | 0.00 | 0.00 | 43 | 1011.5 |
| 20260503224304 | 57 | 269 | 3.0 | 14.0 | 0.00 | 0.00 | 0.00 | 45 | 1011.4 |
| 20260503223805 | 58 | 275 | 4.0 | 10.0 | 0.00 | 0.00 | 0.00 | 45 | 1011.4 |
| 20260503223305 | 58 | 268 | 4.0 | 7.0 | 0.00 | 0.00 | 0.00 | 44 | 1011.4 |
| 20260503222805 | 58 | 270 | 3.0 | 13.0 | 0.00 | 0.00 | 0.00 | 43 | 1011.4 |
| 20260503222305 | 58 | 265 | 3.0 | 6.0 | 0.00 | 0.00 | 0.00 | 44 | 1011.5 |
| 20260503221805 | 58 | 277 | 3.0 | 11.0 | 0.00 | 0.00 | 0.00 | 44 | 1011.5 |
| 20260503221305 | 59 | 255 | 2.0 | 11.0 | 0.00 | 0.00 | 0.00 | 44 | 1011.4 |
| 20260503220804 | 59 | 260 | 3.0 | 7.0 | 0.00 | 0.00 | 0.00 | 43 | 1011.5 |
| 20260503220305 | 59 | 290 | 4.0 | 10.0 | 0.00 | 0.00 | 0.00 | 42 | 1011.4 |
| 20260503215805 | 59 | 287 | 4.0 | 12.0 | 0.00 | 0.00 | 0.00 | 42 | 1011.5 |
| 20260503215305 | 59 | 292 | 3.0 | 14.0 | 0.00 | 0.00 | 0.00 | 40 | 1011.4 |
| 20260503214804 | 59 | 286 | 3.0 | 9.0 | 0.00 | 0.00 | 0.00 | 43 | 1011.4 |
| 20260503214304 | 59 | 285 | 4.0 | 13.0 | 0.00 | 0.00 | 0.00 | 43 | 1011.4 |
| 20260503213805 | 59 | 276 | 3.0 | 14.0 | 0.00 | 0.00 | 0.00 | 42 | 1011.4 |
| 20260503213305 | 59 | 283 | 3.0 | 13.0 | 0.00 | 0.00 | 0.00 | 43 | 1011.3 |
| 20260503212805 | 58 | 302 | 3.0 | 7.0 | 0.00 | 0.00 | 0.00 | 47 | 1011.2 |
| 20260503212347 | 58 | 267 | 2.0 | 12.0 | 0.00 | 0.00 | 0.00 | 45 | 1011.3 |
| 20260503211805 | 58 | 256 | 3.0 | 6.0 | 0.00 | 0.00 | 0.00 | 44 | 1011.3 |
| 20260503211304 | 58 | 280 | 4.0 | 10.0 | 0.00 | 0.00 | 0.00 | 43 | 1011.3 |
| 20260503210805 | 59 | 310 | 4.0 | 10.0 | 0.00 | 0.00 | 0.00 | 45 | 1011.2 |
| 20260503210305 | 59 | 284 | 3.0 | 18.0 | 0.00 | 0.00 | 0.00 | 41 | 1011.2 |
| 20260503205805 | 59 | 272 | 2.0 | 9.0 | 0.00 | 0.00 | 0.00 | 41 | 1011.2 |
| 20260503205305 | 59 | 285 | 2.0 | 9.0 | 0.00 | 0.00 | 0.00 | 42 | 1011.2 |
| 20260503204805 | 60 | 324 | 2.0 | 11.0 | 0.00 | 0.00 | 0.00 | 42 | 1011.2 |
| 20260503204305 | 60 | 267 | 3.0 | 10.0 | 0.00 | 0.00 | 0.00 | 43 | 1011.3 |
| 20260503203805 | 60 | 309 | 5.0 | 11.0 | 0.00 | 0.00 | 0.00 | 43 | 1011.2 |
| 20260503203305 | 60 | 307 | 5.0 | 13.0 | 0.00 | 0.00 | 0.00 | 40 | 1011.2 |
| 20260503202847 | 60 | 292 | 5.0 | 15.0 | 0.00 | 0.00 | 0.00 | 40 | 1011.2 |
| 20260503202305 | 61 | 285 | 4.0 | 17.0 | 0.00 | 0.00 | 0.00 | 40 | 1011.2 |
| 20260503201805 | 60 | 268 | 4.0 | 11.0 | 0.00 | 0.00 | 0.00 | 42 | 1011.2 |
| 20260503201347 | 60 | 289 | 4.0 | 18.0 | 0.00 | 0.00 | 0.00 | 43 | 1011.2 |
| 20260503200804 | 60 | 274 | 3.0 | 18.0 | 0.00 | 0.00 | 0.00 | 43 | 1011.2 |
| 20260503200305 | 60 | 308 | 3.0 | 13.0 | 0.00 | 0.00 | 0.00 | 43 | 1011.2 |
| 20260503195805 | 60 | 311 | 2.0 | 10.0 | 0.00 | 0.00 | 0.00 | 41 | 1011.2 |
| 20260503195305 | 60 | 316 | 2.0 | 10.0 | 0.00 | 0.00 | 0.00 | 44 | 1011.3 |
| 20260503194805 | 60 | 325 | 3.0 | 12.0 | 0.00 | 0.00 | 0.00 | 41 | 1011.6 |
| 20260503194305 | 59 | 312 | 2.0 | 11.0 | 0.00 | 0.00 | 0.00 | 40 | 1011.7 |
| 20260503193805 | 59 | 293 | 3.0 | 6.0 | 0.00 | 0.00 | 0.00 | 44 | 1011.8 |
| 20260503193305 | 59 | 299 | 3.0 | 10.0 | 0.00 | 0.00 | 0.00 | 40 | 1011.9 |
| 20260503192847 | 59 | 276 | 3.0 | 9.0 | 0.00 | 0.00 | 0.00 | 42 | 1012.0 |
| 20260503192305 | 59 | 263 | 3.0 | 5.0 | 0.00 | 0.00 | 0.00 | 43 | 1012.0 |
| 20260503191805 | 59 | 301 | 3.0 | 12.0 | 0.00 | 0.00 | 0.00 | 40 | 1012.1 |
| 20260503191305 | 59 | 317 | 4.0 | 13.0 | 0.00 | 0.00 | 0.00 | 39 | 1012.1 |
| 20260503190805 | 59 | 342 | 5.0 | 12.0 | 0.00 | 0.00 | 0.00 | 43 | 1012.2 |
| 20260503190305 | 59 | 289 | 4.0 | 13.0 | 0.00 | 0.00 | 0.00 | 41 | 1012.2 |
| 20260503185805 | 58 | 286 | 3.0 | 13.0 | 0.00 | 0.00 | 0.00 | 43 | 1012.2 |
| 20260503185305 | 58 | 268 | 3.0 | 8.0 | 0.00 | 0.00 | 0.00 | 43 | 1012.4 |
| 20260503184805 | 58 | 255 | 4.0 | 14.0 | 0.00 | 0.00 | 0.00 | 42 | 1012.4 |
| 20260503184305 | 59 | 347 | 3.0 | 12.0 | 0.00 | 0.00 | 0.00 | 39 | 1012.5 |
| 20260503183305 | 58 | 300 | 3.0 | 14.0 | 0.00 | 0.00 | 0.00 | 45 | 1012.5 |
| 20260503182804 | 58 | 303 | 1.0 | 14.0 | 0.00 | 0.00 | 0.00 | 43 | 1012.7 |
| 20260503182306 | 58 | 330 | 2.0 | 9.0 | 0.00 | 0.00 | 0.00 | 46 | 1012.7 |
| 20260503181805 | 57 | 325 | 3.0 | 6.0 | 0.00 | 0.00 | 0.00 | 42 | 1012.7 |
| 20260503181305 | 58 | 278 | 4.0 | 19.0 | 0.00 | 0.00 | 0.00 | 42 | 1012.7 |
| 20260503180805 | 58 | 302 | 5.0 | 13.0 | 0.00 | 0.00 | 0.00 | 42 | 1012.8 |
| 20260503180305 | 58 | 351 | 4.0 | 11.0 | 0.00 | 0.00 | 0.00 | 42 | 1012.8 |
| 20260503175805 | 58 | 306 | 3.0 | 11.0 | 0.00 | 0.00 | 0.00 | 44 | 1012.9 |
| 20260503175305 | 58 | 281 | 4.0 | 10.0 | 0.00 | 0.00 | 0.00 | 41 | 1013.0 |
| 20260503174805 | 58 | 341 | 4.0 | 19.0 | 0.00 | 0.00 | 0.00 | 43 | 1012.9 |
| 20260503174305 | 58 | 311 | 3.0 | 12.0 | 0.00 | 0.00 | 0.00 | 46 | 1013.0 |
| 20260503173805 | 57 | 343 | 4.0 | 13.0 | 0.00 | 0.00 | 0.00 | 47 | 1013.1 |
| 20260503173305 | 57 | 298 | 4.0 | 12.0 | 0.00 | 0.00 | 0.00 | 46 | 1013.2 |
| 20260503172805 | 56 | 272 | 4.0 | 9.0 | 0.00 | 0.00 | 0.00 | 45 | 1013.2 |
| 20260503172305 | 56 | 274 | 3.0 | 14.0 | 0.00 | 0.00 | 0.00 | 48 | 1013.1 |
| 20260503171805 | 55 | 295 | 3.0 | 9.0 | 0.00 | 0.00 | 0.00 | 47 | 1013.2 |
| 20260503171305 | 55 | 311 | 4.0 | 8.0 | 0.00 | 0.00 | 0.00 | 47 | 1013.4 |
| 20260503170805 | 55 | 335 | 4.0 | 14.0 | 0.00 | 0.00 | 0.00 | 48 | 1013.4 |
| 20260503170305 | 55 | 300 | 3.0 | 9.0 | 0.00 | 0.00 | 0.00 | 49 | 1013.4 |
| 20260503150805 | 52 | 335 | 5.0 | 13.0 | 0.00 | 0.00 | 0.00 | 53 | 1014.3 |
| 20260503150305 | 52 | 344 | 5.0 | 17.0 | 0.00 | 0.00 | 0.00 | 54 | 1014.3 |
| 20260503140305 | 49 | 8 | 4.0 | 10.0 | 0.00 | 0.00 | 0.00 | 55 | 1014.6 |
| 20260503131306 | 46 | 352 | 4.0 | 6.0 | 0.00 | 0.00 | 0.00 | 68 | 1015.0 |
| 20260503130805 | 46 | 354 | 3.0 | 13.0 | 0.00 | 0.00 | 0.00 | 68 | 1015.0 |
| 20260503130305 | 45 | 313 | 3.0 | 7.0 | 0.00 | 0.00 | 0.00 | 69 | 1015.0 |
| 20260503110805 | 37 | 309 | 2.0 | 10.0 | 0.00 | 0.00 | 0.00 | 85 | 1014.3 |
| 20260503110305 | 36 | 265 | 1.0 | 7.0 | 0.00 | 0.00 | 0.00 | 86 | 1014.2 |
| 20260503090305 | 38 | 353 | 2.0 | 7.0 | 0.00 | 0.00 | 0.00 | 82 | 1013.1 |
| 20260503081305 | 40 | 22 | 1.0 | 4.0 | 0.00 | 0.00 | 0.00 | 82 | 1013.0 |
| 20260503080805 | 40 | 23 | 2.0 | 5.0 | 0.00 | 0.00 | 0.00 | 81 | 1012.9 |
| 20260503080306 | 40 | 24 | 2.0 | 7.0 | 0.00 | 0.00 | 0.00 | 81 | 1012.9 |
| 20260503072806 | 40 | 11 | 2.0 | 5.0 | 0.00 | 0.00 | 0.00 | 81 | 1012.4 |
| 20260503072306 | 40 | 16 | 2.0 | 5.0 | 0.00 | 0.00 | 0.00 | 81 | 1012.5 |
| 20260503071805 | 40 | 345 | 0.0 | 6.0 | 0.00 | 0.00 | 0.00 | 81 | 1012.4 |
| 20260503071305 | 40 | 346 | 0.0 | 1.0 | 0.00 | 0.00 | 0.00 | 82 | 1012.5 |
| 20260503070805 | 40 | 346 | 1.0 | 4.0 | 0.00 | 0.00 | 0.00 | 82 | 1012.4 |
| 20260503070305 | 40 | 0 | 1.0 | 4.0 | 0.00 | 0.00 | 0.00 | 81 | 1012.5 |